contact:dominique.lefevre@mio.osupytheas.fr, maurice.libes@osupytheas.fr, didier.mallarino@osupytheas.fr
Project:EMSO http://www.emso-fr.org/EMSO-France
Depth: 2436.0 m
Title:EMSO Ligure Ouest : Data MII capteur CSTAR
DateTime,Latitude,Longitude,Instrument_Serial,Reference_Counts,Signal_Counts,Corrected_Signal_raw_counts,Calculated_Beam_c_inverse_meters,Internal_thermistor_counts
DateTime,Latitude,Longitude,Instrument_Serial,Reference_Counts,Signal_Counts,Corrected_Signal_raw_counts,Calculated_Beam_c_inverse_meters,Internal_thermistor_counts
2019-06-27T00:01:06,42.805,6.029,CST-1368DR,8886,12436,15510,0.027,551
2019-06-27T00:04:08,42.805,6.029,CST-1368DR,8886,12435,15508,0.028,551
2019-06-27T00:07:09,42.805,6.029,CST-1368DR,8886,12435,15509,0.028,551
2019-06-27T00:10:10,42.805,6.029,CST-1368DR,8886,12434,15508,0.028,550
2019-06-27T00:13:12,42.805,6.029,CST-1368DR,8886,12434,15508,0.028,551
2019-06-27T00:16:13,42.805,6.029,CST-1368DR,8886,12436,15510,0.027,550
2019-06-27T00:19:15,42.805,6.029,CST-1368DR,8886,12435,15509,0.028,551
2019-06-27T00:22:16,42.805,6.029,CST-1368DR,8886,12436,15509,0.028,550
2019-06-27T00:25:17,42.805,6.029,CST-1368DR,8886,12433,15507,0.028,551
2019-06-27T00:28:19,42.805,6.029,CST-1368DR,8886,12434,15508,0.028,551
2019-06-27T00:31:20,42.805,6.029,CST-1368DR,8886,12434,15507,0.028,551
2019-06-27T00:34:22,42.805,6.029,CST-1368DR,8886,12435,15509,0.028,550
2019-06-27T00:37:23,42.805,6.029,CST-1368DR,8886,12435,15509,0.028,550
2019-06-27T00:40:24,42.805,6.029,CST-1368DR,8886,12435,15509,0.028,551
2019-06-27T00:43:26,42.805,6.029,CST-1368DR,8886,12434,15507,0.028,551
2019-06-27T00:46:27,42.805,6.029,CST-1368DR,8886,12435,15509,0.028,550
2019-06-27T00:49:29,42.805,6.029,CST-1368DR,8886,12434,15507,0.028,551
2019-06-27T00:52:30,42.805,6.029,CST-1368DR,8886,12434,15507,0.028,551
2019-06-27T00:55:31,42.805,6.029,CST-1368DR,8886,12433,15507,0.028,551
2019-06-27T00:58:33,42.805,6.029,CST-1368DR,8886,12434,15508,0.028,551
2019-06-27T01:01:34,42.805,6.029,CST-1368DR,8886,12434,15508,0.028,551
2019-06-27T01:04:36,42.805,6.029,CST-1368DR,8886,12435,15509,0.028,551
2019-06-27T01:07:37,42.805,6.029,CST-1368DR,8886,12435,15508,0.028,551
2019-06-27T01:10:39,42.805,6.029,CST-1368DR,8885,12429,15502,0.029,551
2019-06-27T01:13:40,42.805,6.029,CST-1368DR,8885,12430,15504,0.029,551
2019-06-27T01:16:41,42.805,6.029,CST-1368DR,8885,12435,15511,0.027,551
2019-06-27T01:19:43,42.805,6.029,CST-1368DR,8885,12434,15509,0.028,551
2019-06-27T01:22:44,42.805,6.029,CST-1368DR,8885,12435,15511,0.027,551
2019-06-27T01:25:46,42.805,6.029,CST-1368DR,8885,12435,15510,0.027,551
2019-06-27T01:28:47,42.805,6.029,CST-1368DR,8885,12434,15509,0.028,551
2019-06-27T01:31:48,42.805,6.029,CST-1368DR,8885,12432,15506,0.028,551
2019-06-27T01:34:50,42.805,6.029,CST-1368DR,8885,12420,15492,0.032,551
2019-06-27T01:37:51,42.805,6.029,CST-1368DR,8885,12434,15509,0.028,551
2019-06-27T01:40:53,42.805,6.029,CST-1368DR,8885,12433,15508,0.028,551
2019-06-27T01:43:54,42.805,6.029,CST-1368DR,8885,12432,15507,0.028,551
2019-06-27T01:46:55,42.805,6.029,CST-1368DR,8885,12432,15507,0.028,551
2019-06-27T01:49:57,42.805,6.029,CST-1368DR,8885,12436,15512,0.027,551
2019-06-27T01:52:58,42.805,6.029,CST-1368DR,8885,12434,15509,0.028,551
2019-06-27T01:56:00,42.805,6.029,CST-1368DR,8885,12436,15511,0.027,551
2019-06-27T01:59:01,42.805,6.029,CST-1368DR,8885,12433,15507,0.028,551
2019-06-27T02:02:03,42.805,6.029,CST-1368DR,8885,12434,15510,0.027,551
2019-06-27T02:05:04,42.805,6.029,CST-1368DR,8885,12432,15506,0.028,551
2019-06-27T02:08:05,42.805,6.029,CST-1368DR,8885,12435,15510,0.027,551
2019-06-27T02:11:07,42.805,6.029,CST-1368DR,8885,12430,15504,0.029,551
2019-06-27T02:14:08,42.805,6.029,CST-1368DR,8885,12434,15510,0.027,551
2019-06-27T02:17:10,42.805,6.029,CST-1368DR,8885,12433,15507,0.028,551
2019-06-27T02:20:11,42.805,6.029,CST-1368DR,8885,12432,15506,0.028,550
2019-06-27T02:23:12,42.805,6.029,CST-1368DR,8885,12433,15508,0.028,551
2019-06-27T02:26:14,42.805,6.029,CST-1368DR,8885,12433,15507,0.028,550
2019-06-27T02:29:15,42.805,6.029,CST-1368DR,8885,12434,15510,0.027,551
2019-06-27T02:32:17,42.805,6.029,CST-1368DR,8885,12431,15505,0.029,551
2019-06-27T02:35:18,42.805,6.029,CST-1368DR,8885,12433,15507,0.028,551
2019-06-27T02:38:19,42.805,6.029,CST-1368DR,8885,12431,15506,0.028,551
2019-06-27T02:41:21,42.805,6.029,CST-1368DR,8885,12434,15509,0.028,551
2019-06-27T02:44:22,42.805,6.029,CST-1368DR,8885,12433,15508,0.028,551
2019-06-27T02:47:24,42.805,6.029,CST-1368DR,8885,12435,15511,0.027,551
2019-06-27T02:50:25,42.805,6.029,CST-1368DR,8884,12429,15504,0.029,551
2019-06-27T02:53:26,42.805,6.029,CST-1368DR,8885,12434,15510,0.027,550
2019-06-27T02:56:28,42.805,6.029,CST-1368DR,8885,12434,15509,0.028,551
2019-06-27T02:59:29,42.805,6.029,CST-1368DR,8885,12434,15509,0.028,551
2019-06-27T03:02:31,42.805,6.029,CST-1368DR,8884,12431,15507,0.028,551
2019-06-27T03:05:32,42.805,6.029,CST-1368DR,8884,12431,15507,0.028,551
2019-06-27T03:08:34,42.805,6.029,CST-1368DR,8884,12432,15509,0.028,551
2019-06-27T03:11:35,42.805,6.029,CST-1368DR,8884,12433,15509,0.028,551
2019-06-27T03:14:36,42.805,6.029,CST-1368DR,8884,12432,15508,0.028,551
2019-06-27T03:17:38,42.805,6.029,CST-1368DR,8884,12419,15492,0.032,551
2019-06-27T03:20:39,42.805,6.029,CST-1368DR,8884,12429,15504,0.029,551
2019-06-27T03:23:41,42.805,6.029,CST-1368DR,8884,12433,15510,0.027,551
2019-06-27T03:26:42,42.805,6.029,CST-1368DR,8884,12433,15510,0.027,551
2019-06-27T03:29:43,42.805,6.029,CST-1368DR,8884,12435,15511,0.027,551
2019-06-27T03:32:45,42.805,6.029,CST-1368DR,8884,12434,15511,0.027,551
2019-06-27T03:35:46,42.805,6.029,CST-1368DR,8884,12435,15511,0.027,551
2019-06-27T03:38:48,42.805,6.029,CST-1368DR,8884,12433,15510,0.027,551
2019-06-27T03:41:49,42.805,6.029,CST-1368DR,8884,12430,15506,0.028,550
2019-06-27T03:44:50,42.805,6.029,CST-1368DR,8884,12432,15508,0.028,550
2019-06-27T03:47:52,42.805,6.029,CST-1368DR,8884,12412,15483,0.034,551
2019-06-27T03:50:53,42.805,6.029,CST-1368DR,8884,12428,15503,0.029,551
2019-06-27T03:53:55,42.805,6.029,CST-1368DR,8884,12431,15506,0.028,551
2019-06-27T03:56:56,42.805,6.029,CST-1368DR,8884,12432,15508,0.028,551
2019-06-27T03:59:57,42.805,6.029,CST-1368DR,8884,12413,15485,0.034,551
2019-06-27T04:02:59,42.805,6.029,CST-1368DR,8884,12427,15502,0.029,550
2019-06-27T04:06:00,42.805,6.029,CST-1368DR,8884,12431,15506,0.028,551
2019-06-27T04:09:02,42.805,6.029,CST-1368DR,8884,12432,15508,0.028,551
2019-06-27T04:12:03,42.805,6.029,CST-1368DR,8884,12431,15507,0.028,551
2019-06-27T04:15:05,42.805,6.029,CST-1368DR,8884,12433,15510,0.027,551
2019-06-27T04:18:06,42.805,6.029,CST-1368DR,8884,12433,15510,0.027,551
2019-06-27T04:21:08,42.805,6.029,CST-1368DR,8884,12429,15505,0.029,550
2019-06-27T04:24:09,42.805,6.029,CST-1368DR,8883,12431,15508,0.028,551
2019-06-27T04:27:10,42.805,6.029,CST-1368DR,8884,12432,15509,0.028,551
2019-06-27T04:30:12,42.805,6.029,CST-1368DR,8883,12431,15509,0.028,551
2019-06-27T04:33:13,42.805,6.029,CST-1368DR,8883,12429,15506,0.028,551
2019-06-27T04:36:15,42.805,6.029,CST-1368DR,8883,12432,15510,0.027,551
2019-06-27T04:39:16,42.805,6.029,CST-1368DR,8883,12430,15507,0.028,551
2019-06-27T04:42:17,42.805,6.029,CST-1368DR,8883,12433,15512,0.027,551
2019-06-27T04:45:19,42.805,6.029,CST-1368DR,8883,12431,15509,0.028,551
2019-06-27T04:48:20,42.805,6.029,CST-1368DR,8883,12431,15508,0.028,551
2019-06-27T04:51:22,42.805,6.029,CST-1368DR,8883,12433,15511,0.027,551
2019-06-27T04:54:23,42.805,6.029,CST-1368DR,8883,12430,15508,0.028,551
2019-06-27T04:57:24,42.805,6.029,CST-1368DR,8883,12433,15511,0.027,551
2019-06-27T05:00:26,42.805,6.029,CST-1368DR,8883,12433,15511,0.027,550
2019-06-27T05:03:27,42.805,6.029,CST-1368DR,8883,12431,15508,0.028,551
2019-06-27T05:06:29,42.805,6.029,CST-1368DR,8883,12433,15512,0.027,551
2019-06-27T05:09:30,42.805,6.029,CST-1368DR,8883,12432,15509,0.028,551
2019-06-27T05:12:32,42.805,6.029,CST-1368DR,8883,12431,15509,0.028,551
2019-06-27T05:15:33,42.805,6.029,CST-1368DR,8883,12431,15508,0.028,551
2019-06-27T05:18:34,42.805,6.029,CST-1368DR,8883,12431,15508,0.028,551
2019-06-27T05:21:36,42.805,6.029,CST-1368DR,8883,12431,15508,0.028,551
2019-06-27T05:24:37,42.805,6.029,CST-1368DR,8883,12427,15504,0.029,551
2019-06-27T05:27:39,42.805,6.029,CST-1368DR,8883,12431,15509,0.028,551
2019-06-27T05:30:40,42.805,6.029,CST-1368DR,8883,12431,15509,0.028,551
2019-06-27T05:33:41,42.805,6.029,CST-1368DR,8883,12430,15507,0.028,551
2019-06-27T05:36:43,42.805,6.029,CST-1368DR,8883,12431,15508,0.028,551
2019-06-27T05:39:44,42.805,6.029,CST-1368DR,8883,12432,15509,0.028,551
2019-06-27T05:42:46,42.805,6.029,CST-1368DR,8883,12429,15507,0.028,551
2019-06-27T05:45:47,42.805,6.029,CST-1368DR,8883,12432,15510,0.027,551
2019-06-27T05:48:48,42.805,6.029,CST-1368DR,8883,12431,15508,0.028,551
2019-06-27T05:51:50,42.805,6.029,CST-1368DR,8883,12429,15506,0.028,551
2019-06-27T05:54:51,42.805,6.029,CST-1368DR,8883,12431,15509,0.028,550
2019-06-27T05:57:53,42.805,6.029,CST-1368DR,8883,12433,15512,0.027,551
2019-06-27T06:00:54,42.805,6.029,CST-1368DR,8883,12430,15507,0.028,551
2019-06-27T06:03:55,42.805,6.029,CST-1368DR,8883,12428,15504,0.029,551
2019-06-27T06:06:57,42.805,6.029,CST-1368DR,8883,12431,15508,0.028,551
2019-06-27T06:09:58,42.805,6.029,CST-1368DR,8882,12428,15506,0.028,551
2019-06-27T06:13:00,42.805,6.029,CST-1368DR,8883,12432,15509,0.028,551
2019-06-27T06:16:01,42.805,6.029,CST-1368DR,8882,12431,15510,0.027,551
2019-06-27T06:19:03,42.805,6.029,CST-1368DR,8882,12430,15509,0.028,550
2019-06-27T06:22:04,42.805,6.029,CST-1368DR,8882,12429,15508,0.028,551
2019-06-27T06:25:05,42.805,6.029,CST-1368DR,8882,12429,15507,0.028,551
2019-06-27T06:28:07,42.805,6.029,CST-1368DR,8882,12425,15503,0.029,551
2019-06-27T06:31:08,42.805,6.029,CST-1368DR,8882,12429,15508,0.028,551
2019-06-27T06:34:10,42.805,6.029,CST-1368DR,8882,12429,15508,0.028,551
2019-06-27T06:37:11,42.805,6.029,CST-1368DR,8882,12429,15507,0.028,551
2019-06-27T06:40:12,42.805,6.029,CST-1368DR,8882,12428,15507,0.028,551
2019-06-27T06:43:14,42.805,6.029,CST-1368DR,8882,12431,15510,0.027,551
2019-06-27T06:46:15,42.805,6.029,CST-1368DR,8882,12429,15508,0.028,551
2019-06-27T06:49:17,42.805,6.029,CST-1368DR,8882,12429,15508,0.028,551
2019-06-27T06:52:18,42.805,6.029,CST-1368DR,8882,12426,15504,0.029,551
2019-06-27T06:55:19,42.805,6.029,CST-1368DR,8882,12430,15509,0.028,551
2019-06-27T06:58:21,42.805,6.029,CST-1368DR,8882,12429,15508,0.028,551
2019-06-27T07:01:22,42.805,6.029,CST-1368DR,8882,12430,15509,0.028,551
2019-06-27T07:04:24,42.805,6.029,CST-1368DR,8882,12428,15507,0.028,551
2019-06-27T07:07:25,42.805,6.029,CST-1368DR,8882,12432,15512,0.027,551
2019-06-27T07:10:27,42.805,6.029,CST-1368DR,8882,12429,15507,0.028,551
2019-06-27T07:13:28,42.805,6.029,CST-1368DR,8882,12429,15508,0.028,551
2019-06-27T07:16:29,42.805,6.029,CST-1368DR,8882,12429,15507,0.028,551
2019-06-27T07:19:31,42.805,6.029,CST-1368DR,8882,12431,15510,0.027,551
2019-06-27T07:22:32,42.805,6.029,CST-1368DR,8881,12429,15509,0.028,551
2019-06-27T07:25:34,42.805,6.029,CST-1368DR,8881,12429,15510,0.027,551
2019-06-27T07:28:35,42.805,6.029,CST-1368DR,8881,12429,15509,0.028,551
2019-06-27T07:31:36,42.805,6.029,CST-1368DR,8881,12428,15508,0.028,551
2019-06-27T07:34:38,42.805,6.029,CST-1368DR,8881,12430,15511,0.027,550
2019-06-27T07:37:39,42.805,6.029,CST-1368DR,8881,12410,15485,0.034,550
2019-06-27T07:40:41,42.805,6.029,CST-1368DR,8881,12429,15509,0.028,550
2019-06-27T07:43:42,42.805,6.029,CST-1368DR,8881,12426,15505,0.029,551
2019-06-27T07:46:43,42.805,6.029,CST-1368DR,8881,12429,15510,0.027,551
2019-06-27T07:49:45,42.805,6.029,CST-1368DR,8881,12430,15511,0.027,551
2019-06-27T07:52:46,42.805,6.029,CST-1368DR,8881,12431,15511,0.027,551
2019-06-27T07:55:48,42.805,6.029,CST-1368DR,8881,12429,15509,0.028,551
2019-06-27T07:58:49,42.805,6.029,CST-1368DR,8881,12431,15511,0.027,551
2019-06-27T08:01:50,42.805,6.029,CST-1368DR,8881,12430,15511,0.027,551
2019-06-27T08:04:52,42.805,6.029,CST-1368DR,8881,12431,15512,0.027,551
2019-06-27T08:07:53,42.805,6.029,CST-1368DR,8881,12403,15477,0.036,551
2019-06-27T08:10:55,42.805,6.029,CST-1368DR,8881,12431,15512,0.027,551
2019-06-27T08:13:56,42.805,6.029,CST-1368DR,8881,12427,15506,0.028,550
2019-06-27T08:16:58,42.805,6.029,CST-1368DR,8881,12431,15511,0.027,551
2019-06-27T08:19:59,42.805,6.029,CST-1368DR,8881,12429,15509,0.028,551
2019-06-27T08:23:00,42.805,6.029,CST-1368DR,8881,12429,15509,0.028,551
2019-06-27T08:26:02,42.805,6.029,CST-1368DR,8881,12432,15513,0.026,550
2019-06-27T08:29:03,42.805,6.029,CST-1368DR,8881,12430,15511,0.027,551
2019-06-27T08:32:05,42.805,6.029,CST-1368DR,8881,12428,15508,0.028,551
2019-06-27T08:35:06,42.805,6.029,CST-1368DR,8881,12429,15509,0.028,551
2019-06-27T08:38:07,42.805,6.029,CST-1368DR,8881,12430,15511,0.027,551
2019-06-27T08:41:09,42.805,6.029,CST-1368DR,8881,12429,15509,0.028,551
2019-06-27T08:44:10,42.805,6.029,CST-1368DR,8881,12431,15512,0.027,551
2019-06-27T08:47:12,42.805,6.029,CST-1368DR,8881,12429,15509,0.028,550
2019-06-27T08:50:13,42.805,6.029,CST-1368DR,8881,12426,15506,0.028,551
2019-06-27T08:53:14,42.805,6.029,CST-1368DR,8881,12428,15508,0.028,550
2019-06-27T08:56:16,42.805,6.029,CST-1368DR,8881,12431,15512,0.027,551
2019-06-27T08:59:17,42.805,6.029,CST-1368DR,8881,12428,15508,0.028,551
2019-06-27T09:02:19,42.805,6.029,CST-1368DR,8881,12430,15511,0.027,551
2019-06-27T09:05:20,42.805,6.029,CST-1368DR,8881,12430,15511,0.027,551
2019-06-27T09:08:21,42.805,6.029,CST-1368DR,8881,12429,15509,0.028,551
2019-06-27T09:11:23,42.805,6.029,CST-1368DR,8881,12430,15510,0.027,551
2019-06-27T09:14:24,42.805,6.029,CST-1368DR,8881,12430,15511,0.027,551
2019-06-27T09:17:26,42.805,6.029,CST-1368DR,8881,12430,15510,0.027,551
2019-06-27T09:20:27,42.805,6.029,CST-1368DR,8880,12430,15513,0.026,551
2019-06-27T09:23:29,42.805,6.029,CST-1368DR,8880,12429,15511,0.027,551
2019-06-27T09:26:30,42.805,6.029,CST-1368DR,8880,12429,15511,0.027,551
2019-06-27T09:29:31,42.805,6.029,CST-1368DR,8880,12429,15510,0.027,551
2019-06-27T09:32:33,42.805,6.029,CST-1368DR,8880,12430,15512,0.027,551
2019-06-27T09:35:34,42.805,6.029,CST-1368DR,8880,12422,15502,0.029,551
2019-06-27T09:38:36,42.805,6.029,CST-1368DR,8880,12425,15506,0.028,551
2019-06-27T09:41:37,42.805,6.029,CST-1368DR,8880,12429,15510,0.027,551
2019-06-27T09:44:38,42.805,6.029,CST-1368DR,8880,12428,15510,0.027,551
2019-06-27T09:47:40,42.805,6.029,CST-1368DR,8880,12428,15510,0.027,551
2019-06-27T09:50:41,42.805,6.029,CST-1368DR,8880,12427,15509,0.028,550
2019-06-27T09:53:43,42.805,6.029,CST-1368DR,8880,12428,15509,0.028,551
2019-06-27T09:56:44,42.805,6.029,CST-1368DR,8880,12428,15509,0.028,551
2019-06-27T09:59:45,42.805,6.029,CST-1368DR,8880,12424,15504,0.029,551
2019-06-27T10:02:47,42.805,6.029,CST-1368DR,8880,12426,15507,0.028,551
2019-06-27T10:05:48,42.805,6.029,CST-1368DR,8880,12429,15511,0.027,551
2019-06-27T10:08:50,42.805,6.029,CST-1368DR,8880,12428,15510,0.027,551
2019-06-27T10:11:51,42.805,6.029,CST-1368DR,8880,12427,15509,0.028,551
2019-06-27T10:14:52,42.805,6.029,CST-1368DR,8880,12425,15506,0.028,551
2019-06-27T10:17:54,42.805,6.029,CST-1368DR,8880,12428,15510,0.027,550
2019-06-27T10:20:55,42.805,6.029,CST-1368DR,8880,12428,15510,0.027,551
2019-06-27T10:23:57,42.805,6.029,CST-1368DR,8880,12426,15508,0.028,550
2019-06-27T10:26:58,42.805,6.029,CST-1368DR,8880,12428,15510,0.027,551
2019-06-27T10:30:00,42.805,6.029,CST-1368DR,8880,12427,15509,0.028,551
2019-06-27T10:33:01,42.805,6.029,CST-1368DR,8879,12426,15509,0.028,550
2019-06-27T10:36:02,42.805,6.029,CST-1368DR,8879,12420,15501,0.030,551
2019-06-27T10:39:04,42.805,6.029,CST-1368DR,8879,12427,15510,0.027,551
2019-06-27T10:42:05,42.805,6.029,CST-1368DR,8879,12427,15510,0.027,551
2019-06-27T10:45:07,42.805,6.029,CST-1368DR,8879,12428,15511,0.027,551
2019-06-27T10:48:08,42.805,6.029,CST-1368DR,8879,12426,15508,0.028,551
2019-06-27T10:51:09,42.805,6.029,CST-1368DR,8879,12426,15509,0.028,551
2019-06-27T10:54:11,42.805,6.029,CST-1368DR,8879,12428,15511,0.027,551
2019-06-27T10:57:12,42.805,6.029,CST-1368DR,8879,12427,15510,0.027,550
2019-06-27T11:00:14,42.805,6.029,CST-1368DR,8879,12426,15509,0.028,551
2019-06-27T11:03:15,42.805,6.029,CST-1368DR,8879,12423,15505,0.029,551
2019-06-27T11:06:16,42.805,6.029,CST-1368DR,8879,12427,15510,0.027,551
2019-06-27T11:09:18,42.805,6.029,CST-1368DR,8879,12424,15507,0.028,551
2019-06-27T11:12:19,42.805,6.029,CST-1368DR,8879,12426,15509,0.028,551
2019-06-27T11:15:21,42.805,6.029,CST-1368DR,8879,12428,15511,0.027,551
2019-06-27T11:18:22,42.805,6.029,CST-1368DR,8879,12429,15512,0.027,551
2019-06-27T11:21:23,42.805,6.029,CST-1368DR,8879,12426,15508,0.028,551
2019-06-27T11:24:25,42.805,6.029,CST-1368DR,8879,12423,15505,0.029,550
2019-06-27T11:27:26,42.805,6.029,CST-1368DR,8879,12426,15509,0.028,551
2019-06-27T11:30:28,42.805,6.029,CST-1368DR,8879,12427,15510,0.027,551
2019-06-27T11:33:29,42.805,6.029,CST-1368DR,8879,12427,15510,0.027,551
2019-06-27T11:36:31,42.805,6.029,CST-1368DR,8879,12427,15509,0.028,551
2019-06-27T11:39:32,42.805,6.029,CST-1368DR,8879,12426,15509,0.028,551
2019-06-27T11:42:33,42.805,6.029,CST-1368DR,8879,12427,15510,0.027,551
2019-06-27T11:45:35,42.805,6.029,CST-1368DR,8879,12425,15508,0.028,551
2019-06-27T11:48:36,42.805,6.029,CST-1368DR,8879,12423,15505,0.029,551
2019-06-27T11:51:38,42.805,6.029,CST-1368DR,8879,12427,15510,0.027,551
2019-06-27T11:54:39,42.805,6.029,CST-1368DR,8879,12424,15506,0.028,551
2019-06-27T11:57:40,42.805,6.029,CST-1368DR,8879,12424,15506,0.028,551
2019-06-27T12:00:42,42.805,6.029,CST-1368DR,8879,12425,15508,0.028,551
2019-06-27T12:03:43,42.805,6.029,CST-1368DR,8879,12425,15508,0.028,551
2019-06-27T12:06:45,42.805,6.029,CST-1368DR,8879,12424,15506,0.028,550
2019-06-27T12:09:46,42.805,6.029,CST-1368DR,8879,12427,15510,0.027,551
2019-06-27T12:12:47,42.805,6.029,CST-1368DR,8879,12426,15508,0.028,551
2019-06-27T12:15:49,42.805,6.029,CST-1368DR,8879,12427,15510,0.027,551
2019-06-27T12:18:50,42.805,6.029,CST-1368DR,8879,12427,15510,0.027,551
2019-06-27T12:21:52,42.805,6.029,CST-1368DR,8879,12427,15509,0.028,551
2019-06-27T12:24:53,42.805,6.029,CST-1368DR,8879,12426,15509,0.028,551
2019-06-27T12:27:55,42.805,6.029,CST-1368DR,8879,12426,15508,0.028,550
2019-06-27T12:30:56,42.805,6.029,CST-1368DR,8879,12425,15508,0.028,551
2019-06-27T12:33:57,42.805,6.029,CST-1368DR,8879,12427,15509,0.028,551
2019-06-27T12:36:59,42.805,6.029,CST-1368DR,8879,12425,15507,0.028,551
2019-06-27T12:40:00,42.805,6.029,CST-1368DR,8879,12427,15510,0.027,551
2019-06-27T12:43:02,42.805,6.029,CST-1368DR,8879,12426,15509,0.028,551
2019-06-27T12:46:03,42.805,6.029,CST-1368DR,8879,12427,15510,0.027,551
2019-06-27T12:49:04,42.805,6.029,CST-1368DR,8879,12425,15507,0.028,551
2019-06-27T12:52:06,42.805,6.029,CST-1368DR,8879,12427,15510,0.027,551
2019-06-27T12:55:07,42.805,6.029,CST-1368DR,8878,12426,15511,0.027,550
2019-06-27T12:58:09,42.805,6.029,CST-1368DR,8878,12424,15508,0.028,551
2019-06-27T13:01:10,42.805,6.029,CST-1368DR,8878,12424,15508,0.028,551
2019-06-27T13:04:11,42.805,6.029,CST-1368DR,8878,12424,15507,0.028,550
2019-06-27T13:07:13,42.805,6.029,CST-1368DR,8878,12425,15510,0.027,551
2019-06-27T13:10:14,42.805,6.029,CST-1368DR,8878,12418,15500,0.030,550
2019-06-27T13:13:16,42.805,6.029,CST-1368DR,8878,12425,15509,0.028,551
2019-06-27T13:16:17,42.805,6.029,CST-1368DR,8878,12424,15508,0.028,551
2019-06-27T13:19:18,42.805,6.029,CST-1368DR,8878,12424,15508,0.028,551
2019-06-27T13:22:20,42.805,6.029,CST-1368DR,8878,12425,15509,0.028,551
2019-06-27T13:25:21,42.805,6.029,CST-1368DR,8878,12425,15510,0.027,551
2019-06-27T13:28:23,42.805,6.029,CST-1368DR,8878,12424,15507,0.028,551
2019-06-27T13:31:24,42.805,6.029,CST-1368DR,8878,12424,15508,0.028,551
2019-06-27T13:34:25,42.805,6.029,CST-1368DR,8878,12425,15509,0.028,551
2019-06-27T13:37:27,42.805,6.029,CST-1368DR,8878,12424,15508,0.028,551
2019-06-27T13:40:28,42.805,6.029,CST-1368DR,8878,12425,15509,0.028,551
2019-06-27T13:43:30,42.805,6.029,CST-1368DR,8878,12424,15508,0.028,551
2019-06-27T13:46:31,42.805,6.029,CST-1368DR,8878,12422,15505,0.029,551
2019-06-27T13:49:33,42.805,6.029,CST-1368DR,8878,12423,15506,0.028,550
2019-06-27T13:52:34,42.805,6.029,CST-1368DR,8878,12423,15507,0.028,551
2019-06-27T13:55:35,42.805,6.029,CST-1368DR,8878,12423,15507,0.028,551
2019-06-27T13:58:37,42.805,6.029,CST-1368DR,8878,12423,15506,0.028,551
2019-06-27T14:01:38,42.805,6.029,CST-1368DR,8878,12424,15508,0.028,551
2019-06-27T14:04:40,42.805,6.029,CST-1368DR,8878,12425,15510,0.027,551
2019-06-27T14:07:41,42.805,6.029,CST-1368DR,8878,12425,15509,0.028,551
2019-06-27T14:10:42,42.805,6.029,CST-1368DR,8878,12425,15509,0.028,551
2019-06-27T14:13:44,42.805,6.029,CST-1368DR,8878,12424,15508,0.028,551
2019-06-27T14:16:45,42.805,6.029,CST-1368DR,8878,12420,15502,0.029,551
2019-06-27T14:19:47,42.805,6.029,CST-1368DR,8878,12424,15508,0.028,551
2019-06-27T14:22:48,42.805,6.029,CST-1368DR,8878,12425,15510,0.027,551
2019-06-27T14:25:49,42.805,6.029,CST-1368DR,8877,12389,15466,0.039,551
2019-06-27T14:28:51,42.805,6.029,CST-1368DR,8877,12425,15510,0.027,551
2019-06-27T14:31:52,42.805,6.029,CST-1368DR,8877,12424,15510,0.027,551
2019-06-27T14:34:54,42.805,6.029,CST-1368DR,8877,12426,15512,0.027,551
2019-06-27T14:37:55,42.805,6.029,CST-1368DR,8877,12424,15509,0.028,551
2019-06-27T14:40:56,42.805,6.029,CST-1368DR,8877,12425,15510,0.027,550
2019-06-27T14:43:58,42.805,6.029,CST-1368DR,8877,12417,15501,0.030,551
2019-06-27T14:46:59,42.805,6.029,CST-1368DR,8877,12425,15510,0.027,551
2019-06-27T14:50:01,42.805,6.029,CST-1368DR,8877,12424,15510,0.027,551
2019-06-27T14:53:02,42.805,6.029,CST-1368DR,8877,12421,15506,0.028,551
2019-06-27T14:56:04,42.805,6.029,CST-1368DR,8877,12424,15509,0.028,551
2019-06-27T14:59:05,42.805,6.029,CST-1368DR,8877,12425,15511,0.027,551
2019-06-27T15:02:06,42.805,6.029,CST-1368DR,8877,12421,15506,0.028,551
2019-06-27T15:05:08,42.805,6.029,CST-1368DR,8877,12417,15500,0.030,551
2019-06-27T15:08:09,42.805,6.029,CST-1368DR,8877,12421,15506,0.028,551
2019-06-27T15:11:11,42.805,6.029,CST-1368DR,8877,12414,15496,0.031,551
2019-06-27T15:14:12,42.805,6.029,CST-1368DR,8877,12425,15511,0.027,551
2019-06-27T15:17:13,42.805,6.029,CST-1368DR,8877,12424,15509,0.028,551
2019-06-27T15:20:15,42.805,6.029,CST-1368DR,8877,12425,15510,0.027,551
2019-06-27T15:23:16,42.805,6.029,CST-1368DR,8877,12421,15506,0.028,551
2019-06-27T15:26:18,42.805,6.029,CST-1368DR,8877,12424,15510,0.027,551
2019-06-27T15:29:19,42.805,6.029,CST-1368DR,8877,12424,15510,0.027,551
2019-06-27T15:32:20,42.805,6.029,CST-1368DR,8877,12420,15504,0.029,550
2019-06-27T15:35:22,42.805,6.029,CST-1368DR,8877,12421,15505,0.029,551
2019-06-27T15:38:23,42.805,6.029,CST-1368DR,8877,12421,15506,0.028,551
2019-06-27T15:41:25,42.805,6.029,CST-1368DR,8877,12420,15504,0.029,551
2019-06-27T15:44:26,42.805,6.029,CST-1368DR,8877,12413,15496,0.031,551
2019-06-27T15:47:27,42.805,6.029,CST-1368DR,8877,12419,15503,0.029,551
2019-06-27T15:50:29,42.805,6.029,CST-1368DR,8877,12422,15507,0.028,551
2019-06-27T15:53:30,42.805,6.029,CST-1368DR,8877,12421,15506,0.028,551
2019-06-27T15:56:32,42.805,6.029,CST-1368DR,8877,12422,15507,0.028,551
2019-06-27T15:59:33,42.805,6.029,CST-1368DR,8876,12422,15509,0.028,551
2019-06-27T16:02:35,42.805,6.029,CST-1368DR,8876,12418,15504,0.029,551
2019-06-27T16:05:36,42.805,6.029,CST-1368DR,8876,12424,15512,0.027,551
2019-06-27T16:08:37,42.805,6.029,CST-1368DR,8876,12422,15508,0.028,551
2019-06-27T16:11:39,42.805,6.029,CST-1368DR,8876,12423,15509,0.028,551
2019-06-27T16:14:40,42.805,6.029,CST-1368DR,8876,12419,15505,0.029,551
2019-06-27T16:17:42,42.805,6.029,CST-1368DR,8876,12422,15508,0.028,551
2019-06-27T16:20:43,42.805,6.029,CST-1368DR,8876,12420,15506,0.028,551
2019-06-27T16:23:44,42.805,6.029,CST-1368DR,8876,12419,15504,0.029,550
2019-06-27T16:26:46,42.805,6.029,CST-1368DR,8876,12422,15508,0.028,551
2019-06-27T16:29:47,42.805,6.029,CST-1368DR,8876,12422,15508,0.028,551
2019-06-27T16:32:49,42.805,6.029,CST-1368DR,8876,12422,15508,0.028,550
2019-06-27T16:35:50,42.805,6.029,CST-1368DR,8876,12412,15497,0.031,551